Location: Unspecified
(0.0000°N, 0.0000°E)
Time: 07:56:09
(UTC+00:00)

NTS 1 - Visible Passes

Search period start: 10 June 2023 00:00
Search period end: 20 June 2023 00:00
Orbit: 13478 x 13741 km, 124.8° (Epoch: 09 June)

Date Brightness Start Highest point End Pass type
(mag) Time Alt. Az. Time Alt. Az. Time Alt. Az.
10 Jun ? 17:38:33 10° SSE 18:28:08 35° SSW 19:19:05 10° W visible
10 Jun ? 23:10:14 10° E 00:05:46 40° SSE 00:59:07 10° SSW visible
11 Jun ? 05:21:57 10° NNE 06:13:45 38° NNW 07:07:47 10° W visible
11 Jun ? 17:08:45 10° SSE 18:01:37 40° SSW 18:56:02 10° W visible
11 Jun ? 22:47:24 10° E 23:39:20 35° SSE 00:29:19 10° SSW visible
12 Jun ? 04:52:07 10° NNE 05:47:07 43° NW 06:44:33 10° W visible
12 Jun ? 16:38:56 10° SSE 17:34:47 45° SW 18:32:16 10° WNW visible
12 Jun ? 22:25:10 10° ESE 23:17:20 30° SSE 23:59:36 10° SSW visible
13 Jun ? 04:22:19 10° NNE 05:20:13 49° NW 06:20:35 10° WSW visible
13 Jun ? 22:03:26 10° ESE 22:47:25 27° SSE 23:30:03 10° SSW visible
14 Jun ? 03:52:38 10° NNE 04:53:03 55° NW 05:55:52 10° WSW visible
14 Jun ? 21:41:59 10° ESE 22:21:54 23° SSE 23:00:51 10° SSW visible
15 Jun ? 03:23:07 10° NNE 04:25:41 62° NW 05:30:25 10° WSW visible
15 Jun ? 21:38:27 18° SE 21:56:41 21° SSE 22:32:08 10° SSW visible
16 Jun ? 02:53:48 10° NE 03:58:08 69° NW 05:02:24 12° WSW visible
16 Jun ? 21:04:56 13° SE 21:31:40 19° S 22:04:09 10° SSW visible
17 Jun ? 02:24:46 10° NE 03:30:28 76° NW 04:26:28 21° SW visible
17 Jun ? 20:36:10 10° SE 21:06:50 18° S 21:37:11 10° SSW visible
18 Jun ? 01:56:04 10° NE 03:02:43 83° NW 03:50:39 30° SW visible
18 Jun ? 20:12:30 10° SSE 20:42:05 17° S 21:11:30 10° SSW visible
19 Jun ? 01:27:46 10° NE 02:34:55 89° SE 03:14:57 39° SW visible
19 Jun ? 19:47:29 10° SSE 20:17:21 17° S 20:47:10 10° SW visible
